Location: Valdosta
(30.8330°N, 83.2790°W)
Time: 21:59:19
(UTC-04:00)

Amateur Radio Satellites - All Passes

Search period start: 27 May 2015 21:29
Search period end: 28 May 2015 21:29
Location: Valdosta, 30.8330°N, 83.2790°W

Satellite Date Start Highest point End Downlink Frequencies (MHz)
Time Altitude Azimuth
YUBILEINY 27 May 21:30:43 21:36:41 20° 275° (W) 21:42:09 435.215
SEEDS 27 May 21:33:26 21:37:36 60° 76° (ENE) 21:41:46 437.485
GOMX 1 27 May 21:34:40 21:39:40 65° 260° (W) 21:45:00 467.674
BRITE-PL 27 May 21:36:40 21:41:18 38° 264° (W) 21:46:15 437.365/2234.400
COMPASS 1 27 May 21:45:23 21:49:32 67° 77° (ENE) 21:53:42 437.405
AAUSAT CUBESAT 2 27 May 21:56:48 22:00:58 80° 79° (E) 22:05:08 437.432
UWE-3 27 May 21:59:47 22:03:38 27° 73° (ENE) 22:07:35 435.000/436.395/437.385
CINEMA 3 27 May 22:03:25 22:08:22 80° 78° (ENE) 22:13:26 145.822/145.860
RS-15 27 May 22:05:15 22:11:00 14° 257° (WSW) 22:15:27 29.354- 29.394
FUNcube-1 27 May 22:07:51 22:11:30 24° 72° (ENE) 22:15:14 145.935
Cosmos 2504 27 May 22:10:52 22:18:02 71° 83° (E) 22:25:18 435.465 / 435.565
ISS 27 May 22:17:14 22:19:02 14° 127° (SE) 22:20:57 145.825
DELFI C3 27 May 22:18:53 22:22:40 41° 75° (ENE) 22:26:28 145.870
HO-68 27 May 22:29:00 22:35:29 35° 262° (W) 22:41:53 435.675
DOVE 4 27 May 22:32:35 22:36:45 25° 266° (W) 22:40:55 437.250
HUMSAT D 27 May 22:36:19 22:39:36 22° 72° (ENE) 22:42:58 437.325/437.525
CANX-2 27 May 22:47:15 22:48:59 12° 268° (W) 22:50:27 2200.000
ZACube-1 27 May 22:47:42 22:52:18 76° 78° (ENE) 22:56:53 437.345
UKube-1 27 May 22:48:41 22:52:27 31° 73° (ENE) 22:56:18 .
CUBEBUG 2 27 May 22:49:41 22:54:24 63° 260° (W) 22:59:08 437.445
CUTE 1.7 + AOD 2 27 May 22:50:35 22:52:23 12° 268° (W) 22:53:56 437.475
DX 1 27 May 22:58:19 23:02:26 44° 75° (ENE) 23:06:37 434.975-435.025
Oscar 11 27 May 22:58:54 23:03:00 40° 262° (W) 23:07:04 145.826/435.025
UNISAT 6 27 May 23:08:24 23:10:47 15° 93° (E) 23:13:22 437.425
CUBEBUG 1 27 May 23:13:35 23:15:46 14° 70° (ENE) 23:18:11 437.445
VELOX 1 27 May 23:16:04 23:19:58 33° 73° (ENE) 23:23:58 145.980
50 SAT 27 May 23:20:01 23:23:44 39° 75° (ENE) 23:27:29 437.505
ESTCUBE 1 27 May 23:22:56 23:26:19 22° 72° (ENE) 23:29:50 437.505/2401.250
NANOSAT C BR1 27 May 23:31:49 23:32:55 11° 91° (E) 23:34:19 145.865
UWE-3 27 May 23:36:21 23:40:08 23° 265° (W) 23:43:47 435.000/436.395/437.385
QB50P2 27 May 23:39:21 23:41:45 15° 93° (E) 23:44:19 145.880/145.840
FUNcube-1 27 May 23:43:58 23:47:44 24° 265° (W) 23:51:24 145.935
AISAT 27 May 23:47:26 23:51:52 85° 78° (ENE) 23:56:21 437.250
ANTELSAT 27 May 23:50:15 23:54:29 51° 100° (E) 23:58:39 437.575/2403.000
POPSAT HIP 1 27 May 23:50:46 23:53:54 20° 95° (E) 23:57:09 437.405
DUCHIFAT 1 27 May 23:51:57 23:55:05 20° 95° (E) 23:58:19 145.980
ISS 27 May 23:52:18 23:55:15 32° 319° (NW) 23:58:13 145.825
DELFI C3 27 May 23:57:14 23:58:01 10° 269° (W) 23:58:31 145.870
GONETS M04 28 May 00:02:13 00:08:16 21° 70° (ENE) 00:14:45
Cosmos 2504 28 May 00:07:12 00:10:47 14° 275° (W) 00:13:51 435.465 / 435.565
TISAT 1 28 May 00:10:01 00:10:57 11° 69° (ENE) 00:12:09 437.305
BUGSAT 1 28 May 00:10:46 00:14:10 23° 96° (E) 00:17:36 437.445
HUMSAT D 28 May 00:11:42 00:15:14 23° 265° (W) 00:18:40 437.325/437.525
DANDE 28 May 00:17:46 00:23:43 27° 68° (ENE) 00:28:45 436.750
TIGRISAT 28 May 00:22:37 00:26:55 62° 284° (WNW) 00:31:06 435.000
UKube-1 28 May 00:25:49 00:28:40 17° 266° (W) 00:31:21 .
QB50P1 28 May 00:33:48 00:38:04 75° 101° (ESE) 00:42:18 145.935-145.965
POLYITAN 1 28 May 00:36:19 00:40:36 83° 102° (ESE) 00:44:50 437.675
DX 1 28 May 00:37:23 00:38:58 11° 268° (W) 00:40:16 434.975-435.025
CUSAT 1 28 May 00:42:34 00:49:09 56° 77° (ENE) 00:54:09 437.405
UNISAT 6 28 May 00:43:48 00:47:44 33° 286° (WNW) 00:51:32 437.425
CUBEBUG 1 28 May 00:47:47 00:51:50 38° 262° (W) 00:55:55 437.445
VELOX 1 28 May 00:53:45 00:56:38 16° 267° (W) 00:59:20 145.980
50 SAT 28 May 00:57:28 00:58:39 11° 268° (W) 00:59:34 437.505
ESTCUBE 1 28 May 00:59:22 01:03:05 25° 264° (W) 01:06:44 437.505/2401.250
NANOSAT C BR1 28 May 01:04:58 01:09:02 43° 285° (WNW) 01:13:02 145.865
VERMONT LUNAR 28 May 01:13:38 01:16:49 54° 147° (SSE) 01:19:58 437.305
QB50P2 28 May 01:13:54 01:17:46 32° 286° (WNW) 01:21:31 145.880/145.840
SPROUT 28 May 01:22:36 01:26:52 61° 259° (W) 01:31:09 437.525
PCSat 28 May 01:24:52 01:30:16 79° 296° (WNW) 01:35:42 145.827
POPSAT HIP 1 28 May 01:26:15 01:29:45 24° 288° (WNW) 01:33:08 437.405
ITUPSAT 1 28 May 01:27:23 01:29:38 14° 69° (ENE) 01:32:09 437.325
DUCHIFAT 1 28 May 01:27:23 01:30:51 24° 288° (WNW) 01:34:13 145.980
ANTELSAT 28 May 01:30:13 01:30:51 10° 292° (WNW) 01:31:12 437.575/2403.000
BEESAT 28 May 01:33:44 01:36:39 17° 69° (ENE) 01:39:44 436.000
SWISSCUBE 28 May 01:41:37 01:45:14 23° 71° (ENE) 01:48:59 437.505
TISAT 1 28 May 01:42:15 01:46:20 48° 261° (W) 01:50:28 437.305
BUGSAT 1 28 May 01:46:13 01:49:31 21° 288° (WNW) 01:52:41 437.445
PHONESAT 2.4 28 May 01:54:16 01:57:15 27° 144° (SE) 02:00:15 2401.200-2431.200
GONETS M04 28 May 01:57:13 02:05:53 65° 268° (W) 02:14:26
DANDE 28 May 02:00:32 02:07:12 39° 271° (W) 02:12:21 436.750
Oscar 19 28 May 02:09:47 02:13:46 23° 95° (E) 02:17:52 437.125/150
O/OREOS (USA 219) 28 May 02:21:46 02:26:09 54° 70° (ENE) 02:30:32 437.305
CUSAT 1 28 May 02:27:26 02:30:51 15° 278° (W) 02:33:32 437.405
Cosmos 2499 28 May 02:37:18 02:43:45 38° 78° (ENE) 02:50:27 435.465 / 435.565
VERMONT LUNAR 28 May 02:51:21 02:54:07 25° 342° (NNW) 02:56:53 437.305
KKS-1 28 May 02:57:19 03:00:41 22° 71° (ENE) 03:04:10 437.445
ITUPSAT 1 28 May 03:02:35 03:07:10 47° 260° (W) 03:11:45 437.325
Gurwin Techsat 1B 28 May 03:09:41 03:13:54 24° 95° (E) 03:18:14 435.225
BEESAT 28 May 03:09:47 03:14:13 38° 261° (W) 03:18:37 436.000
BEESAT 2 28 May 03:11:29 03:14:00 16° 52° (NE) 03:16:38 435.950
SWISSCUBE 28 May 03:18:54 03:22:59 28° 264° (W) 03:27:00 437.505
SO-50 28 May 03:21:32 03:26:06 73° 116° (ESE) 03:30:53 436.795
PHONESAT 2.4 28 May 03:31:54 03:35:16 44° 336° (NNW) 03:38:36 2401.200-2431.200
Oscar 19 28 May 03:48:37 03:53:09 31° 288° (WNW) 03:57:34 437.125/150
STARS 28 May 03:57:42 04:02:06 69° 77° (ENE) 04:06:33 437.465
BEESAT 3 28 May 03:57:54 04:01:57 71° 61° (ENE) 04:05:56 437.485
ITAMSAT 1 28 May 04:04:25 04:09:39 83° 285° (WNW) 04:14:54 435.822/435.867
JAS-2 28 May 04:23:05 04:26:48 20° 95° (E) 04:30:54 435.910
VERMONT LUNAR 28 May 04:30:08 04:32:00 14° 359° (N) 04:33:51 437.305
Cosmos 2499 28 May 04:30:51 04:36:43 28° 271° (W) 04:42:30 435.465 / 435.565
KKS-1 28 May 04:33:26 04:37:12 26° 264° (W) 04:40:54 437.445
MOZHAYETS 4 28 May 04:34:32 04:37:37 19° 71° (ENE) 04:40:51
AIST 2 28 May 04:45:16 04:49:20 48° 60° (ENE) 04:53:20 435.215
BEESAT 2 28 May 04:48:31 04:52:14 33° 247° (WSW) 04:55:49 435.950
Gurwin Techsat 1B 28 May 04:49:12 04:53:53 31° 288° (WNW) 04:58:29 435.225
SO-50 28 May 05:05:36 05:07:18 11° 314° (NW) 05:08:45 436.795
AO-7 28 May 05:10:25 05:18:28 52° 101° (ESE) 05:26:35 29.400- 29.500
PHONESAT 2.4 28 May 05:11:28 05:13:55 18° 353° (N) 05:16:21 2401.200-2431.200
HORYU 2 28 May 05:22:12 05:26:38 79° 284° (WNW) 05:31:02 437.375
Cosmos 2491 28 May 05:49:00 05:52:28 13° 65° (ENE) 05:56:43 435.465 / 435.565
VERMONT LUNAR 28 May 06:07:21 06:09:54 22° 15° (NNE) 06:12:27 437.305
JAS-2 28 May 06:07:22 06:12:04 34° 287° (WNW) 06:16:55 435.910
MOZHAYETS 4 28 May 06:10:34 06:14:39 31° 263° (W) 06:18:41
CUBESAT XI-V 28 May 06:16:38 06:19:37 18° 71° (ENE) 06:22:46 437.345
ISS 28 May 06:24:21 06:26:41 18° 36° (NE) 06:29:04 145.825
AIST 2 28 May 06:26:43 06:27:31 10° 251° (WSW) 06:28:02 435.215
STRAND 1 28 May 06:29:20 06:29:34 10° 66° (ENE) 06:30:10 437.568
CUTE-I 28 May 06:29:51 06:30:11 10° 90° (E) 06:30:58 437.470
YUBILEINY 28 May 06:35:06 06:38:15 13° 83° (E) 06:42:11 435.215
Cubesat XI-IV 28 May 06:47:59 06:51:28 18° 93° (E) 06:55:12 437.490
PHONESAT 2.4 28 May 06:50:16 06:52:49 19° 10° (N) 06:55:23 2401.200-2431.200
AO-7 28 May 07:03:54 07:10:57 30° 296° (WNW) 07:17:45 29.400- 29.500
PRISM 28 May 07:07:37 07:11:02 27° 73° (ENE) 07:14:32 437.425
M-CUBED/EXP-1 PRIME 28 May 07:22:48 07:26:18 25° 70° (ENE) 07:29:38 437.505
AUBIESAT-1 28 May 07:29:45 07:33:14 26° 70° (ENE) 07:36:34 437.475
AIST 1 28 May 07:39:19 07:41:18 13° 73° (ENE) 07:43:32
Cosmos 2491 28 May 07:41:57 07:50:50 87° 87° (E) 07:59:37 435.465 / 435.565
VERMONT LUNAR 28 May 07:44:08 07:47:20 77° 211° (SSW) 07:50:30 437.305
CUBESAT XI-V 28 May 07:52:41 07:56:50 33° 263° (W) 08:00:58 437.345
RS-15 28 May 07:55:31 08:03:23 25° 105° (ESE) 08:11:53 29.354- 29.394
ISS 28 May 08:00:14 08:03:09 30° 230° (SW) 08:06:02 145.825
STRAND 1 28 May 08:03:11 08:08:15 73° 258° (WSW) 08:13:21 437.568
CUTE-I 28 May 08:05:29 08:10:50 71° 285° (WNW) 08:16:11 437.470
BRITE-PL 28 May 08:12:44 08:13:13 10° 87° (E) 08:14:09 437.365/2234.400
YUBILEINY 28 May 08:25:22 08:34:09 90° 275° (W) 08:42:57 435.215
Cubesat XI-IV 28 May 08:26:43 08:31:48 43° 287° (WNW) 08:36:49 437.490
PHONESAT 2.4 28 May 08:27:59 08:31:23 56° 25° (NNE) 08:34:48 2401.200-2431.200
PRISM 28 May 08:43:50 08:46:32 16° 266° (W) 08:49:04 437.425
M-CUBED/EXP-1 PRIME 28 May 08:57:49 09:01:04 20° 259° (W) 09:04:03 437.505
DOVE 4 28 May 09:01:48 09:03:30 12° 89° (E) 09:05:30 437.250
CANX-2 28 May 09:02:17 09:03:00 11° 91° (E) 09:04:01 2200.000
AUBIESAT-1 28 May 09:04:50 09:07:58 19° 259° (W) 09:10:48 437.475
CUTE 1.7 + AOD 2 28 May 09:05:52 09:06:19 10° 91° (E) 09:07:07 437.475
AIST 1 28 May 09:15:06 09:19:10 37° 268° (W) 09:23:12
SEEDS 28 May 09:24:38 09:26:58 15° 93° (E) 09:29:30 437.485
COMPASS 1 28 May 09:35:30 09:38:02 16° 93° (E) 09:40:44 437.405
Cosmos 2491 28 May 09:42:27 09:46:45 14° 278° (W) 09:50:18 435.465 / 435.565
GOMX 1 28 May 09:42:38 09:47:51 63° 100° (E) 09:52:44 467.674
JUGNU 28 May 09:43:46 09:47:36 18° 166° (SSE) 09:51:30 437.505
AAUSAT CUBESAT 2 28 May 09:46:11 09:49:02 19° 94° (E) 09:52:01 437.432
BRITE-PL 28 May 09:46:52 09:52:27 73° 283° (WNW) 09:57:41 437.365/2234.400
HO-68 28 May 10:01:46 10:08:51 62° 102° (ESE) 10:15:54 435.675
RS-15 28 May 10:04:08 10:14:58 69° 301° (WNW) 10:26:00 29.354- 29.394
CINEMA 3 28 May 10:05:03 10:08:58 28° 95° (E) 10:12:49 145.822/145.860
PHONESAT 2.4 28 May 10:06:44 10:09:18 19° 218° (SW) 10:11:50 2401.200-2431.200
PCSat 28 May 10:18:51 10:23:20 26° 57° (ENE) 10:27:53 145.827
YUBILEINY 28 May 10:27:54 10:32:21 14° 295° (WNW) 10:36:04 435.215
CANX-2 28 May 10:35:12 10:39:12 44° 285° (WNW) 10:43:11 2200.000
DOVE 4 28 May 10:36:51 10:41:44 52° 285° (WNW) 10:46:17 437.250
CUTE 1.7 + AOD 2 28 May 10:38:31 10:42:33 44° 284° (WNW) 10:46:32 437.475
Cosmos 2504 28 May 10:41:14 10:49:39 72° 94° (E) 10:57:32 435.465 / 435.565
ZACube-1 28 May 10:43:03 10:46:13 21° 94° (E) 10:49:27 437.345
ANTELSAT 28 May 10:44:02 10:47:50 26° 72° (ENE) 10:51:43 437.575/2403.000
CUBEBUG 2 28 May 10:46:56 10:51:03 40° 98° (E) 10:55:04 437.445
Oscar 11 28 May 10:51:26 10:55:38 53° 100° (E) 10:59:50 145.826/435.025
DX 1 28 May 10:54:09 10:55:44 12° 92° (E) 10:57:37 434.975-435.025
SEEDS 28 May 10:59:10 11:02:52 31° 286° (WNW) 11:06:30 437.485
SRMSAT 28 May 11:04:07 11:07:22 15° 164° (SSE) 11:10:43 437.500
COMPASS 1 28 May 11:10:10 11:13:46 28° 286° (WNW) 11:17:18 437.405
TIGRISAT 28 May 11:15:18 11:19:54 57° 76° (ENE) 11:24:29 435.000
AAUSAT CUBESAT 2 28 May 11:21:13 11:24:38 25° 287° (WNW) 11:27:58 437.432
QB50P1 28 May 11:21:30 11:25:05 27° 73° (ENE) 11:28:45 145.935-145.965
GOMX 1 28 May 11:23:07 11:25:23 12° 293° (WNW) 11:27:17 467.674
POLYITAN 1 28 May 11:24:10 11:27:54 30° 73° (ENE) 11:31:42 437.675
UWE-3 28 May 11:31:05 11:35:24 69° 283° (WNW) 11:39:34 435.000/436.395/437.385
JUGNU 28 May 11:31:12 11:36:07 27° 175° (S) 11:41:01 437.505
UNISAT 6 28 May 11:36:17 11:40:59 78° 258° (WSW) 11:45:39 437.425
FUNcube-1 28 May 11:37:11 11:41:28 78° 283° (WNW) 11:45:37 145.935
DELFI C3 28 May 11:38:15 11:42:09 50° 285° (WNW) 11:46:01 145.870
CINEMA 3 28 May 11:42:35 11:46:00 20° 290° (WNW) 11:49:11 145.822/145.860
AISAT 28 May 11:44:14 11:47:54 25° 96° (E) 11:51:36 437.250
HO-68 28 May 11:50:59 11:56:05 21° 296° (WNW) 12:00:52 435.675
NANOSAT C BR1 28 May 11:51:34 11:55:48 65° 77° (ENE) 12:00:04 145.865
SO-50 28 May 11:59:19 12:02:34 18° 50° (NE) 12:05:57 436.795
HUMSAT D 28 May 12:00:24 12:04:33 86° 101° (E) 12:08:38 437.325/437.525
QB50P2 28 May 12:00:39 12:04:56 89° 78° (ENE) 12:09:15 145.880/145.840
CUSAT 1 28 May 12:01:53 12:04:25 12° 82° (E) 12:07:44 437.405
PCSat 28 May 12:01:57 12:06:47 32° 251° (WSW) 12:11:29 145.827
POPSAT HIP 1 28 May 12:12:35 12:16:50 66° 259° (W) 12:21:07 437.405
DUCHIFAT 1 28 May 12:13:17 12:17:31 67° 260° (W) 12:21:46 145.980
UKube-1 28 May 12:16:57 12:21:17 64° 284° (WNW) 12:25:34 .
ZACube-1 28 May 12:19:07 12:22:32 23° 288° (WNW) 12:25:48 437.345
ANTELSAT 28 May 12:20:43 12:24:33 24° 265° (W) 12:28:15 437.575/2403.000
RS-15 28 May 12:23:18 12:30:06 17° 327° (NNW) 12:36:27 29.354- 29.394
CUBEBUG 2 28 May 12:25:19 12:27:24 13° 291° (WNW) 12:29:14 437.445
DX 1 28 May 12:28:04 12:32:14 43° 286° (WNW) 12:36:22 434.975-435.025
BUGSAT 1 28 May 12:29:44 12:33:49 62° 259° (W) 12:37:58 437.445
50 SAT 28 May 12:36:08 12:39:56 58° 284° (WNW) 12:43:41 437.505
Cosmos 2504 28 May 12:38:17 12:43:45 18° 290° (WNW) 12:48:30 435.465 / 435.565
CUBEBUG 1 28 May 12:41:42 12:46:05 58° 100° (E) 12:50:28 437.445
VELOX 1 28 May 12:47:52 12:52:15 55° 285° (WNW) 12:56:37 145.980
SRMSAT 28 May 12:51:15 12:56:01 25° 173° (S) 13:00:47 437.500
GONETS M04 28 May 12:55:57 13:03:05 30° 87° (E) 13:10:32
TIGRISAT 28 May 12:56:15 12:57:01 10° 270° (W) 12:57:25 435.000
ESTCUBE 1 28 May 12:56:30 13:01:02 79° 283° (WNW) 13:05:34 437.505/2401.250
QB50P1 28 May 12:57:54 13:00:58 18° 266° (W) 13:03:53 145.935-145.965
POLYITAN 1 28 May 13:00:58 13:03:51 17° 266° (W) 13:06:35 437.675
SPROUT 28 May 13:14:59 13:18:55 34° 97° (E) 13:22:51 437.525
DANDE 28 May 13:18:39 13:25:01 45° 90° (E) 13:32:47 436.750
JUGNU 28 May 13:19:45 13:24:40 27° 185° (S) 13:29:32 437.505
AISAT 28 May 13:20:50 13:24:22 22° 289° (WNW) 13:27:46 437.250
Oscar 19 28 May 13:21:43 13:25:23 21° 70° (ENE) 13:29:14 437.125/150
TISAT 1 28 May 13:32:14 13:36:13 38° 99° (E) 13:40:11 437.305
SO-50 28 May 13:38:41 13:43:25 47° 246° (WSW) 13:48:01 436.795
CUSAT 1 28 May 13:38:50 13:45:54 85° 97° (E) 13:54:12 437.405
Gurwin Techsat 1B 28 May 14:25:45 14:29:47 23° 70° (ENE) 14:33:59 435.225
SRMSAT 28 May 14:39:45 14:44:42 28° 183° (S) 14:49:39 437.500
GONETS M04 28 May 14:51:10 14:59:39 48° 282° (WNW) 15:08:03
O/OREOS (USA 219) 28 May 14:52:03 14:53:46 12° 101° (E) 14:55:45 437.305
SPROUT 28 May 14:52:07 14:54:45 15° 289° (WNW) 14:57:10 437.525
Oscar 19 28 May 14:59:43 15:04:31 37° 262° (W) 15:09:18 437.125/150
DANDE 28 May 15:02:20 15:08:32 31° 290° (WNW) 15:15:32 436.750
Cosmos 2499 28 May 15:06:46 15:14:11 40° 91° (E) 15:21:15 435.465 / 435.565
ITUPSAT 1 28 May 15:08:25 15:13:12 69° 102° (ESE) 15:17:57 437.325
JUGNU 28 May 15:09:17 15:13:09 18° 194° (SSW) 15:16:56 437.505
TISAT 1 28 May 15:09:32 15:11:41 13° 290° (WNW) 15:13:36 437.305
BEESAT 28 May 15:15:03 15:19:50 85° 104° (ESE) 15:24:37 436.000
ITAMSAT 1 28 May 15:16:52 15:22:02 85° 77° (ENE) 15:27:14 435.822/435.867
SWISSCUBE 28 May 15:23:50 15:28:36 70° 284° (WNW) 15:33:22 437.505
CUSAT 1 28 May 15:25:07 15:29:52 17° 296° (WNW) 15:34:24 437.405
STARS 28 May 15:53:55 15:57:03 20° 95° (E) 16:00:18 437.465
AO-7 28 May 16:03:30 16:11:06 44° 67° (ENE) 16:18:52 29.400- 29.500
Gurwin Techsat 1B 28 May 16:04:49 16:09:36 33° 263° (W) 16:14:21 435.225
JAS-2 28 May 16:12:24 16:18:56 50° 75° (ENE) 16:24:47 435.910
HORYU 2 28 May 16:14:57 16:19:15 47° 74° (ENE) 16:23:33 437.375
O/OREOS (USA 219) 28 May 16:28:33 16:32:52 43° 292° (WNW) 16:37:09 437.305
KKS-1 28 May 16:29:07 16:33:37 86° 283° (WNW) 16:38:03 437.445
SRMSAT 28 May 16:29:08 16:33:22 20° 192° (SSW) 16:37:33 437.500
Cosmos 2499 28 May 17:00:08 17:07:23 32° 284° (WNW) 17:14:00 435.465 / 435.565
RS-15 28 May 17:00:54 17:09:02 22° 39° (NE) 17:17:56 29.354- 29.394
BEESAT 2 28 May 17:02:33 17:02:50 10° 109° (ESE) 17:03:23 435.950
STARS 28 May 17:29:44 17:33:30 27° 288° (WNW) 17:37:10 437.465
BEESAT 3 28 May 17:45:25 17:49:18 48° 114° (ESE) 17:53:16 437.485
CUTE-I 28 May 17:46:35 17:47:35 11° 66° (ENE) 17:48:58 437.470
HORYU 2 28 May 17:54:31 17:56:10 11° 268° (W) 17:57:31 437.375
AO-7 28 May 17:56:37 18:04:00 34° 262° (W) 18:11:16 29.400- 29.500
JAS-2 28 May 17:59:08 18:04:10 21° 265° (W) 18:08:33 435.910
Cubesat XI-IV 28 May 18:05:10 18:08:34 18° 69° (ENE) 18:12:12 437.490
MOZHAYETS 4 28 May 18:10:28 18:15:04 88° 282° (WNW) 18:19:38
BEESAT 2 28 May 18:36:34 18:40:32 48° 300° (WNW) 18:44:33 435.950
AIST 2 28 May 18:37:55 18:41:50 39° 113° (ESE) 18:45:50 435.215
Cosmos 2491 28 May 18:42:56 18:48:20 19° 84° (E) 18:54:17 435.465 / 435.565
YUBILEINY 28 May 18:43:02 18:50:39 34° 75° (ENE) 18:58:27 435.215
RS-15 28 May 19:11:48 19:23:37 83° 63° (ENE) 19:35:52 29.354- 29.394
CUTE-I 28 May 19:21:50 19:27:07 74° 258° (WSW) 19:32:27 437.470
BEESAT 3 28 May 19:25:53 19:27:37 12° 310° (NW) 19:29:10 437.485
Cubesat XI-IV 28 May 19:43:19 19:48:22 44° 261° (W) 19:53:25 437.490
CUBESAT XI-V 28 May 19:54:11 19:58:54 88° 291° (WNW) 20:03:38 437.345
AIST 2 28 May 20:17:55 20:20:36 16° 308° (NW) 20:23:09 435.215
STRAND 1 28 May 20:19:14 20:24:19 60° 101° (E) 20:29:25 437.568
HO-68 28 May 20:25:23 20:31:02 27° 66° (ENE) 20:36:54 435.675
PRISM 28 May 20:29:44 20:33:54 80° 283° (WNW) 20:38:05 437.425
Cosmos 2491 28 May 20:35:44 20:44:30 70° 278° (W) 20:53:18 435.465 / 435.565
YUBILEINY 28 May 20:39:34 20:47:33 41° 271° (W) 20:55:24 435.215
Cosmos 2504 28 May 20:42:59 20:46:33 15° 69° (ENE) 20:50:39 435.465 / 435.565
M-CUBED/EXP-1 PRIME 28 May 20:43:15 20:46:23 40° 104° (ESE) 20:49:36 437.505
GOMX 1 28 May 20:44:38 20:49:17 37° 73° (ENE) 20:54:14 467.674
AUBIESAT-1 28 May 20:49:34 20:52:43 41° 104° (ESE) 20:55:57 437.475
BRITE-PL 28 May 20:51:19 20:56:18 72° 77° (ENE) 21:01:44 437.365/2234.400
CINEMA 3 28 May 21:01:51 21:04:52 17° 70° (ENE) 21:08:08 145.822/145.860
